[[{"header":{"parameterUnit":"m.s-1","parameterCategory":1,"la1":30.2991,"la2":30.254,"lo1":-89.0895,"lo2":-89.0444,"dy":0.0017,"dx":0.0017,"nx":28,"ny":28,"refTime":"2025-11-08T03:00:00:Z","depth":0,"parameterNumber":2,"parameterNumberName":"U-component_of_WINDS"},"data":[0,0,0,0,0,0,0,0,0,0,0,0,0,0,0,0,0,0,0,0,0,0,0,0,0,0,0,0,0,0,0,0,0,0,0,0,0,0,0,0,0,0,0,0,0,0,0,0,0,0,0,0,0,0,0,0,0,0,1.3908,1.391,0,1.4059,1.4061,1.4062,1.4147,1.4147,1.4147,1.4148,1.4305,1.4309,1.4313,0,0,0,0,0,0,0,0,0,0,0,0,0,1.3699,1.3702,1.3908,1.391,1.3912,1.4059,1.4061,1.4063,1.4147,1.4147,1.4147,1.4148,1.4304,1.4309,1.4313,0,0,0,0,0,0,0,0,0,0,0,0,0,1.3814,1.3704,1.3907,1.3971,1.3978,1.4058,1.4061,1.4063,1.4147,1.4147,1.4148,1.4148,1.4302,1.4308,1.4314,1.4343,0,0,1.4332,1.4335,0,0,0,0,0,0,0,0,1.3807,1.3821,1.396,1.3967,1.3975,1.4084,1.4045,1.4157,1.4147,1.4083,1.4148,1.4148,1.4232,1.4243,1.4271,1.4351,1.4357,1.4333,1.4336,1.4339,1.4341,0,0,0,0,0,0,0,1.3799,1.3815,1.3968,1.3962,1.3971,1.3995,1.4011,1.4067,1.4153,1.4088,1.4095,1.4112,1.4236,1.4265,1.4275,1.436,1.4333,1.4338,1.4342,1.4344,1.4478,1.4478,0,0,0,0,0,0,1.378,1.3808,1.3963,1.3972,1.389,1.3998,1.4017,1.4049,1.4153,1.4169,1.4111,1.4115,1.4255,1.4268,1.4281,1.4326,1.4339,1.4344,1.4348,1.4478,1.4478,1.4478,0,0,0,0,0,0,1.3775,1.3793,1.3957,1.3892,1.3915,1.4001,1.4037,1.4052,1.4081,1.417,1.4186,1.4124,1.4256,1.4273,1.4329,1.4333,1.4347,1.4352,1.4478,1.4478,1.4478,1.4413,0,0,0,0,0,0,1.3769,1.3791,1.3801,1.3892,1.3918,1.3999,1.4037,1.4054,1.4091,1.4097,1.4187,1.4202,1.4257,1.4319,1.4334,1.4341,1.4357,1.4478,1.4478,1.4478,1.4415,1.4411,1.4407,0,0,0,0,0,1.3761,1.3776,1.3801,1.3819,1.3932,1.3999,1.4014,1.4076,1.409,1.4103,1.4161,1.4199,1.433,1.4324,1.4342,1.435,1.4478,1.4478,1.4478,1.4417,1.4412,1.4407,0,0,0,0,0,0,1.3682,1.3788,1.3817,1.3861,1.3921,1.4013,1.4029,1.4068,1.4124,1.4128,1.4204,1.4224,1.4273,1.4318,1.4309,1.4388,1.4408,1.4412,1.4356,1.4352,1.4348,1.4336,1.4362,0,0,0,0,0,1.367,1.3714,1.3805,1.3835,1.3864,1.3942,1.3973,1.4016,1.4081,1.4107,1.4169,1.4231,1.4288,1.4322,1.4378,1.4423,1.4446,1.4438,1.4434,1.443,1.4432,1.4465,1.4463,1.4478,1.4478,1.4478,0,0,1.3645,1.3708,1.3731,1.3821,1.3872,1.3919,1.3962,1.4008,1.4044,1.4114,1.4171,1.4219,1.4295,1.4346,1.4372,1.4385,1.4434,1.443,1.4426,1.4431,1.4464,1.4463,1.4462,1.4478,1.4478,1.4478,0,0,1.3623,1.3674,1.3707,1.3758,1.3835,1.3888,1.3896,1.3985,1.4019,1.4078,1.4133,1.4179,1.4271,1.4325,1.4363,1.4369,1.4408,1.4386,1.4364,1.4394,1.4393,1.4393,1.4397,1.4398,1.4387,1.4387,1.4387,0,1.3582,1.3652,1.3719,1.3764,1.3804,1.387,1.3907,1.3953,1.4045,1.4072,1.4086,1.4208,1.4263,1.433,1.4332,1.4361,1.4375,1.4375,1.4388,1.4388,1.4388,1.4394,1.4395,1.4384,1.4385,1.4385,1.4385,0,1.36,1.3649,1.3666,1.3754,1.3797,1.3836,1.3912,1.3948,1.3989,1.4042,1.4103,1.4173,1.4246,1.4266,1.4306,1.4341,1.4347,1.4373,1.4395,1.4383,1.4389,1.4392,1.438,1.4381,1.4382,1.4383,0,0,1.3528,1.3656,1.3662,1.3705,1.3798,1.3838,1.3884,1.3956,1.3987,1.4049,1.4092,1.4172,1.4199,1.4243,1.4291,1.4317,1.4322,1.4341,1.4345,1.4337,1.4369,1.4349,1.435,1.4349,1.435,1.435,1.4364,0,1.352,1.3603,1.3668,1.3728,1.3776,1.3844,1.3885,1.3948,1.4,1.4051,1.4109,1.4166,1.4195,1.4223,1.4252,1.4315,1.433,1.4315,1.4392,1.4394,1.437,1.4353,1.4331,1.434,1.4366,1.4367,1.4367,0,1.3521,1.3583,1.3648,1.3741,1.3764,1.3799,1.3873,1.392,1.3996,1.4032,1.4085,1.4135,1.4191,1.4209,1.4288,1.4277,1.4313,1.435,1.4352,1.4361,1.4379,1.4364,1.4344,1.4346,1.4372,1.4371,1.4371,0,1.3465,1.3565,1.3618,1.3652,1.3762,1.3786,1.3833,1.3909,1.395,1.4016,1.4044,1.4115,1.4155,1.4211,1.4281,1.4287,1.4355,1.4378,1.4389,1.4387,1.4399,1.4397,1.4385,1.4421,1.4421,1.4421,1.4421,0,1.345,1.3487,1.3595,1.3627,1.3673,1.3749,1.3794,1.3847,1.3915,1.3962,1.4025,1.4068,1.4158,1.4213,1.4268,1.4328,1.4345,1.4378,1.4392,1.4372,1.4368,1.4397,1.4398,1.4421,1.4421,1.4421,1.4421,0,1.3394,1.3466,1.3529,1.3629,1.3656,1.3686,1.3773,1.3809,1.3867,1.3925,1.3944,1.4034,1.4103,1.4179,1.4272,1.4311,1.4367,1.4387,1.4341,1.435,1.4357,1.4356,1.4363,1.437,1.4399,1.4399,1.4398,0,1.3379,1.341,1.3515,1.3551,1.3596,1.3652,1.3696,1.3775,1.3818,1.391,1.3936,1.4009,1.4072,1.4179,1.4255,1.4329,1.4352,1.435,1.4363,1.4344,1.4354,1.4352,1.4357,1.4345,1.4345,1.4344,1.4344,0,1.3346,1.3382,1.3441,1.3515,1.3565,1.3627,1.3691,1.3718,1.381,1.3856,1.3927,1.3976,1.4074,1.4148,1.4232,1.4284,1.433,1.4339,1.4346,1.4326,1.4299,1.4316,1.4331,1.4338,1.4339,1.4339,1.4339,1.434,1.3312,1.3344,1.3424,1.349,1.3547,1.3608,1.3648,1.3712,1.3773,1.3858,1.3902,1.3974,1.4055,1.4173,1.4224,1.4283,1.4298,1.4307,1.4309,1.431,1.4306,1.4289,1.4299,1.4299,1.4299,1.43,1.43,0,1.3284,1.334,1.34,1.3489,1.3542,1.3582,1.3658,1.37,1.3762,1.3833,1.3895,1.398,1.4053,1.4137,1.4216,1.4248,1.4272,1.4267,1.4265,1.4277,1.4287,1.4274,1.4247,1.4247,1.4247,1.4247,1.4247,1.4247,1.3275,1.3333,1.338,1.347,1.3527,1.3597,1.3637,1.3695,1.3753,1.3845,1.3906,1.396,1.4039,1.4125,1.4196,1.4219,1.4246,1.4235,1.4264,1.4272,1.4276,1.428,1.4268,1.424,1.424,1.425,1.425,1.425]},{"header":{"parameterUnit":"m.s-1","parameterCategory":1,"la1":30.2991,"la2":30.254,"lo1":-89.0895,"lo2":-89.0444,"dy":0.0017,"dx":0.0017,"nx":28,"ny":28,"refTime":"2025-11-08T03:00:00:Z","depth":0,"parameterNumber":3,"parameterNumberName":"V-component_of_WINDS"},"data":[0,0,0,0,0,0,0,0,0,0,0,0,0,0,0,0,0,0,0,0,0,0,0,0,0,0,0,0,0,0,0,0,0,0,0,0,0,0,0,0,0,0,0,0,0,0,0,0,0,0,0,0,0,0,0,0,0,0,2.5933,2.5933,0,2.6013,2.6014,2.6015,2.6065,2.6065,2.6065,2.6065,2.6144,2.6146,2.6147,0,0,0,0,0,0,0,0,0,0,0,0,0,2.5817,2.5819,2.5932,2.5933,2.5934,2.6013,2.6014,2.6015,2.6065,2.6065,2.6065,2.6065,2.6143,2.6145,2.6147,0,0,0,0,0,0,0,0,0,0,0,0,0,2.5879,2.5819,2.5932,2.5969,2.5973,2.6013,2.6014,2.6016,2.6064,2.6065,2.6065,2.6066,2.6142,2.6145,2.6148,2.6157,0,0,2.6156,2.6157,0,0,0,0,0,0,0,0,2.5875,2.5883,2.5962,2.5966,2.5971,2.6029,2.6002,2.6063,2.6064,2.6029,2.6065,2.6066,2.6105,2.6111,2.6125,2.6161,2.6164,2.6156,2.6158,2.6159,2.616,0,0,0,0,0,0,0,2.5871,2.588,2.5964,2.5963,2.5969,2.598,2.5989,2.6014,2.6064,2.6033,2.6036,2.6045,2.6107,2.6122,2.6127,2.6165,2.6156,2.6159,2.6161,2.6162,2.6213,2.6213,0,0,0,0,0,0,2.5862,2.5876,2.5962,2.5967,2.5923,2.5981,2.5992,2.601,2.6064,2.6072,2.6045,2.6047,2.6117,2.6124,2.613,2.6145,2.6159,2.6162,2.6164,2.6213,2.6213,2.6212,0,0,0,0,0,0,2.5859,2.5869,2.5959,2.5923,2.5935,2.5983,2.6003,2.6011,2.6027,2.6073,2.6082,2.6051,2.6118,2.6126,2.615,2.6149,2.6163,2.6166,2.6213,2.6213,2.6213,2.6175,0,0,0,0,0,0,2.5855,2.5867,2.5872,2.5922,2.5937,2.5978,2.6003,2.6013,2.6032,2.6036,2.6082,2.609,2.6119,2.6146,2.6153,2.6153,2.6168,2.6214,2.6213,2.6213,2.6176,2.6173,2.617,0,0,0,0,0,2.5851,2.5857,2.5872,2.5882,2.5944,2.5978,2.5986,2.6021,2.6031,2.6036,2.6066,2.6088,2.6148,2.6148,2.6157,2.6157,2.6214,2.6213,2.6213,2.6178,2.6174,2.617,0,0,0,0,0,0,2.5804,2.5865,2.5882,2.5905,2.5936,2.5987,2.5994,2.6016,2.6044,2.6046,2.6087,2.6097,2.6117,2.6139,2.6139,2.6169,2.6183,2.6184,2.6154,2.615,2.6147,2.6141,2.617,0,0,0,0,0,2.5797,2.5821,2.5872,2.5887,2.5902,2.5945,2.5961,2.5986,2.6019,2.6032,2.6064,2.6095,2.6121,2.6136,2.6163,2.618,2.619,2.6184,2.6181,2.6178,2.6178,2.6189,2.6187,2.621,2.621,2.621,0,0,2.5781,2.5817,2.583,2.5879,2.5906,2.5929,2.5956,2.5979,2.5996,2.6035,2.6061,2.6085,2.6122,2.6143,2.6153,2.6162,2.6174,2.6177,2.6174,2.6176,2.6188,2.6186,2.6184,2.621,2.621,2.621,0,0,2.5765,2.5795,2.5811,2.5838,2.588,2.5909,2.5912,2.596,2.5978,2.6004,2.6034,2.6054,2.6098,2.6123,2.6141,2.6135,2.6156,2.6142,2.6126,2.6136,2.6134,2.6133,2.6131,2.613,2.6142,2.6142,2.6142,0,2.574,2.5778,2.5816,2.5838,2.5859,2.5897,2.5913,2.5937,2.5984,2.5997,2.6006,2.6062,2.6089,2.6116,2.6115,2.6129,2.6134,2.6137,2.6132,2.6131,2.613,2.6128,2.6127,2.614,2.614,2.6141,2.6141,0,2.5745,2.5771,2.5779,2.5825,2.5846,2.5865,2.5906,2.5922,2.5945,2.5972,2.5998,2.6032,2.6066,2.6074,2.6096,2.6105,2.6109,2.6124,2.614,2.6125,2.6124,2.6124,2.6138,2.6138,2.6139,2.6139,0,0,2.5702,2.577,2.5773,2.5794,2.5843,2.5863,2.5883,2.5918,2.5931,2.5962,2.598,2.6016,2.6031,2.6052,2.6076,2.6085,2.6078,2.6099,2.6101,2.6094,2.609,2.6079,2.6077,2.6092,2.6092,2.6092,2.6087,0,2.5693,2.5733,2.5769,2.5795,2.5819,2.5856,2.5873,2.5904,2.593,2.5953,2.5981,2.6006,2.6024,2.6037,2.6047,2.6077,2.6078,2.6077,2.6108,2.6109,2.6099,2.6077,2.6065,2.6059,2.6087,2.6087,2.6087,0,2.5688,2.572,2.5749,2.5796,2.5807,2.5823,2.5858,2.588,2.5915,2.5933,2.5957,2.5983,2.6005,2.6018,2.6049,2.6048,2.6062,2.6079,2.6079,2.6084,2.6097,2.6081,2.6057,2.6056,2.6087,2.6087,2.6087,0,2.5654,2.5704,2.5728,2.5745,2.58,2.581,2.5834,2.587,2.5889,2.5919,2.5931,2.5962,2.598,2.6003,2.6036,2.6043,2.6063,2.6079,2.6079,2.6078,2.6081,2.6081,2.606,2.609,2.609,2.609,2.609,0,2.5641,2.5658,2.5714,2.5728,2.5748,2.5788,2.5806,2.5832,2.5864,2.5884,2.5916,2.5934,2.5977,2.5999,2.6025,2.6047,2.6054,2.6069,2.6075,2.6066,2.6064,2.6076,2.6078,2.609,2.609,2.609,2.609,0,2.5607,2.5645,2.5674,2.5724,2.5737,2.5749,2.5792,2.5807,2.5835,2.5859,2.5867,2.5911,2.5939,2.5975,2.6013,2.6031,2.6049,2.606,2.6038,2.6042,2.604,2.604,2.6026,2.6027,2.6055,2.6055,2.6055,0,2.5596,2.561,2.5662,2.5679,2.5701,2.5727,2.5747,2.5786,2.5805,2.5847,2.5857,2.5888,2.5915,2.5958,2.5992,2.6022,2.6034,2.6027,2.6038,2.6029,2.6034,2.6033,2.6035,2.6024,2.6023,2.6023,2.6023,0,2.5573,2.5592,2.562,2.5655,2.5678,2.5706,2.5737,2.5748,2.5793,2.5813,2.5843,2.5864,2.5905,2.5935,2.5969,2.5992,2.6014,2.6019,2.602,2.6011,2.5998,2.6006,2.6031,2.6019,2.6019,2.602,2.602,2.602,2.5551,2.5565,2.5604,2.5635,2.5662,2.5689,2.5706,2.5737,2.5763,2.5801,2.5822,2.5851,2.5886,2.5935,2.5957,2.598,2.5988,2.599,2.5991,2.5991,2.5988,2.5994,2.5986,2.5986,2.5986,2.5986,2.5986,0,2.553,2.5557,2.5585,2.5627,2.565,2.5671,2.5706,2.5724,2.575,2.5781,2.5808,2.5842,2.5872,2.5908,2.594,2.5951,2.5962,2.5958,2.5958,2.5963,2.5978,2.5974,2.5949,2.5949,2.5949,2.5949,2.5949,2.5949,2.5522,2.5548,2.5571,2.561,2.5637,2.5667,2.5685,2.571,2.5736,2.5773,2.5799,2.5823,2.5856,2.5891,2.5919,2.5929,2.5939,2.5931,2.5944,2.5958,2.5962,2.5965,2.5961,2.5933,2.5933,2.5927,2.5927,2.5927]}]]